Time,TemperatureF,DewpointF,PressureIn,WindDirection,WindDirectionDegrees,WindSpeedMPH,WindSpeedGustMPH,Humidity,HourlyPrecipIn,Conditions,Clouds,dailyrainin,SoftwareType,DateUTC
2013-05-03 00:00:00,55.6,46.0,30.16,East,85,0.0,0.0,70,0.00,,,0.00,Wunderground v.1.15,2013-05-03 04:00:00,
2013-05-03 00:05:00,55.5,46.2,30.17,East,86,0.0,0.0,71,0.00,,,0.00,Wunderground v.1.15,2013-05-03 04:05:00,
2013-05-03 00:10:00,55.4,46.2,30.16,East,86,0.0,1.0,71,0.00,,,0.00,Wunderground v.1.15,2013-05-03 04:10:00,
2013-05-03 00:15:00,55.3,46.4,30.16,ENE,78,0.0,1.0,72,0.00,,,0.00,Wunderground v.1.15,2013-05-03 04:15:00,
2013-05-03 00:25:00,55.1,46.6,30.16,ENE,78,0.0,0.0,73,0.00,,,0.00,Wunderground v.1.15,2013-05-03 04:25:00,
2013-05-03 00:30:00,54.9,46.8,30.16,ENE,78,0.0,0.0,74,0.00,,,0.00,Wunderground v.1.15,2013-05-03 04:30:00,
2013-05-03 00:40:00,54.3,46.5,30.16,ENE,78,0.0,0.0,75,0.00,,,0.00,Wunderground v.1.15,2013-05-03 04:40:00,
2013-05-03 00:50:00,54.5,47.1,30.16,ENE,65,0.0,0.0,76,0.00,,,0.00,Wunderground v.1.15,2013-05-03 04:50:00,
2013-05-03 01:00:00,54.6,47.5,30.16,East,80,0.0,1.0,77,0.00,,,0.00,Wunderground v.1.15,2013-05-03 05:00:00,
2013-05-03 01:05:00,54.6,47.5,30.15,East,85,0.0,1.0,77,0.00,,,0.00,Wunderground v.1.15,2013-05-03 05:05:00,
2013-05-03 01:10:00,54.6,47.5,30.15,East,79,1.0,1.0,77,0.00,,,0.00,Wunderground v.1.15,2013-05-03 05:10:00,
2013-05-03 01:15:00,54.7,47.6,30.15,NE,51,1.0,1.0,77,0.00,,,0.00,Wunderground v.1.15,2013-05-03 05:15:00,
2013-05-03 01:25:00,54.6,47.9,30.15,East,86,1.0,1.0,78,0.00,,,0.00,Wunderground v.1.15,2013-05-03 05:25:00,
2013-05-03 01:30:00,54.6,47.9,30.15,East,86,0.0,0.0,78,0.00,,,0.00,Wunderground v.1.15,2013-05-03 05:30:00,
2013-05-03 01:40:00,54.6,47.9,30.14,East,96,0.0,1.0,78,0.00,,,0.00,Wunderground v.1.15,2013-05-03 05:40:00,
2013-05-03 01:45:00,54.7,48.0,30.15,East,81,0.0,1.0,78,0.00,,,0.00,Wunderground v.1.15,2013-05-03 05:45:00,
2013-05-03 01:55:00,54.9,48.2,30.14,ENE,70,0.0,2.0,78,0.00,,,0.00,Wunderground v.1.15,2013-05-03 05:55:00,
2013-05-03 02:00:00,54.9,48.5,30.14,ENE,70,0.0,0.0,79,0.00,,,0.00,Wunderground v.1.15,2013-05-03 06:00:00,
2013-05-03 02:10:00,54.9,48.5,30.14,East,99,0.0,0.0,79,0.00,,,0.00,Wunderground v.1.15,2013-05-03 06:10:00,
2013-05-03 02:15:00,55.0,48.6,30.14,East,96,1.0,1.0,79,0.00,,,0.00,Wunderground v.1.15,2013-05-03 06:15:00,
2013-05-03 02:25:00,55.3,48.9,30.14,East,84,1.0,1.0,79,0.00,,,0.00,Wunderground v.1.15,2013-05-03 06:25:00,
2013-05-03 02:35:00,55.3,48.6,30.14,ENE,68,1.0,2.0,78,0.00,,,0.00,Wunderground v.1.15,2013-05-03 06:35:00,
2013-05-03 02:45:00,55.3,48.6,30.14,SSE,157,0.0,1.0,78,0.00,,,0.00,Wunderground v.1.15,2013-05-03 06:45:00,
2013-05-03 02:50:00,55.3,48.6,30.14,SE,146,0.0,0.0,78,0.00,,,0.00,Wunderground v.1.15,2013-05-03 06:50:00,
2013-05-03 03:00:00,55.2,48.8,30.13,ESE,106,0.0,0.0,79,0.00,,,0.00,Wunderground v.1.15,2013-05-03 07:00:00,
2013-05-03 03:10:00,54.9,48.8,30.13,ESE,106,0.0,0.0,80,0.00,,,0.00,Wunderground v.1.15,2013-05-03 07:10:00,
2013-05-03 03:15:00,54.9,48.8,30.13,East,87,0.0,0.0,80,0.00,,,0.00,Wunderground v.1.15,2013-05-03 07:15:00,
2013-05-03 03:25:00,55.2,48.8,30.13,East,82,0.0,0.0,79,0.00,,,0.00,Wunderground v.1.15,2013-05-03 07:25:00,
2013-05-03 03:35:00,55.3,48.9,30.13,ESE,117,0.0,0.0,79,0.00,,,0.00,Wunderground v.1.15,2013-05-03 07:35:00,
2013-05-03 03:40:00,55.0,48.9,30.13,ESE,117,0.0,0.0,80,0.00,,,0.00,Wunderground v.1.15,2013-05-03 07:40:00,
2013-05-03 03:50:00,54.6,48.9,30.13,East,86,0.0,0.0,81,0.00,,,0.00,Wunderground v.1.15,2013-05-03 07:50:00,
2013-05-03 03:55:00,55.0,48.9,30.13,ENE,77,0.0,1.0,80,0.00,,,0.00,Wunderground v.1.15,2013-05-03 07:55:00,
2013-05-03 04:00:00,55.5,49.1,30.13,East,93,0.0,0.0,79,0.00,,,0.00,Wunderground v.1.15,2013-05-03 08:00:00,
2013-05-03 04:10:00,56.0,49.2,30.13,ENE,73,1.0,2.0,78,0.00,,,0.00,Wunderground v.1.15,2013-05-03 08:10:00,
2013-05-03 04:20:00,56.2,49.4,30.13,East,83,1.0,1.0,78,0.00,,,0.00,Wunderground v.1.15,2013-05-03 08:20:00,
2013-05-03 04:30:00,56.2,49.8,30.13,East,96,0.0,1.0,79,0.00,,,0.00,Wunderground v.1.15,2013-05-03 08:30:00,
2013-05-03 04:40:00,56.4,49.6,30.13,East,79,1.0,1.0,78,0.00,,,0.00,Wunderground v.1.15,2013-05-03 08:40:00,
2013-05-03 04:45:00,56.4,49.6,30.13,ESE,107,1.0,1.0,78,0.00,,,0.00,Wunderground v.1.15,2013-05-03 08:45:00,
2013-05-03 04:55:00,56.6,49.8,30.13,East,85,1.0,1.0,78,0.00,,,0.00,Wunderground v.1.15,2013-05-03 08:55:00,
2013-05-03 05:00:00,56.8,49.7,30.13,East,89,2.0,2.0,77,0.00,,,0.00,Wunderground v.1.15,2013-05-03 09:00:00,
2013-05-03 05:10:00,56.8,49.3,30.13,East,90,1.0,3.0,76,0.00,,,0.00,Wunderground v.1.15,2013-05-03 09:10:00,
2013-05-03 05:20:00,56.8,49.3,30.13,East,91,1.0,2.0,76,0.00,,,0.00,Wunderground v.1.15,2013-05-03 09:20:00,
2013-05-03 05:25:00,56.9,49.4,30.13,East,86,1.0,2.0,76,0.00,,,0.00,Wunderground v.1.15,2013-05-03 09:25:00,
2013-05-03 05:35:00,57.1,49.2,30.13,East,86,1.0,1.0,75,0.00,,,0.00,Wunderground v.1.15,2013-05-03 09:35:00,
2013-05-03 05:40:00,57.3,49.1,30.14,East,91,1.0,1.0,74,0.00,,,0.00,Wunderground v.1.15,2013-05-03 09:40:00,
2013-05-03 05:50:00,57.6,49.4,30.14,East,97,0.0,0.0,74,0.00,,,0.00,Wunderground v.1.15,2013-05-03 09:50:00,
2013-05-03 05:55:00,57.7,49.1,30.14,East,91,0.0,1.0,73,0.00,,,0.00,Wunderground v.1.15,2013-05-03 09:55:00,
2013-05-03 06:00:00,57.8,49.2,30.14,East,91,0.0,0.0,73,0.00,,,0.00,Wunderground v.1.15,2013-05-03 10:00:00,
2013-05-03 06:10:00,57.8,48.8,30.14,East,94,0.0,0.0,72,0.00,,,0.00,Wunderground v.1.15,2013-05-03 10:10:00,
2013-05-03 06:20:00,57.8,48.8,30.14,East,89,0.0,1.0,72,0.00,,,0.00,Wunderground v.1.15,2013-05-03 10:20:00,
2013-05-03 06:25:00,57.9,48.6,30.14,ESE,114,0.0,1.0,71,0.00,,,0.00,Wunderground v.1.15,2013-05-03 10:25:00,
2013-05-03 06:35:00,58.0,48.6,30.14,ENE,73,0.0,1.0,71,0.00,,,0.00,Wunderground v.1.15,2013-05-03 10:35:00,
2013-05-03 06:45:00,58.3,48.9,30.14,ESE,123,0.0,0.0,71,0.00,,,0.00,Wunderground v.1.15,2013-05-03 10:45:00,
2013-05-03 06:50:00,58.4,48.7,30.15,ESE,120,0.0,0.0,70,0.00,,,0.00,Wunderground v.1.15,2013-05-03 10:50:00,
2013-05-03 07:00:00,58.7,48.6,30.15,ENE,77,0.0,0.0,69,0.00,,,0.00,Wunderground v.1.15,2013-05-03 11:00:00,
2013-05-03 07:05:00,58.9,48.7,30.15,East,95,1.0,1.0,69,0.00,,,0.00,Wunderground v.1.15,2013-05-03 11:05:00,
2013-05-03 07:15:00,59.3,49.1,30.15,ENE,68,0.0,1.0,69,0.00,,,0.00,Wunderground v.1.15,2013-05-03 11:15:00,
2013-05-03 07:20:00,59.4,48.8,30.15,ESE,118,0.0,0.0,68,0.00,,,0.00,Wunderground v.1.15,2013-05-03 11:20:00,
2013-05-03 07:30:00,59.8,49.2,30.15,East,82,0.0,0.0,68,0.00,,,0.00,Wunderground v.1.15,2013-05-03 11:30:00,
2013-05-03 07:35:00,60.1,49.5,30.15,SE,124,0.0,0.0,68,0.00,,,0.00,Wunderground v.1.15,2013-05-03 11:35:00,
2013-05-03 07:45:00,61.3,49.8,30.15,SE,134,0.0,1.0,66,0.00,,,0.00,Wunderground v.1.15,2013-05-03 11:45:00,
2013-05-03 07:55:00,62.4,50.1,30.15,ESE,117,1.0,2.0,64,0.00,,,0.00,Wunderground v.1.15,2013-05-03 11:55:00,
2013-05-03 08:00:00,62.8,50.4,30.15,SW,219,1.0,1.0,64,0.00,,,0.00,Wunderground v.1.15,2013-05-03 12:00:00,
2013-05-03 08:05:00,63.0,50.6,30.15,SW,228,1.0,1.0,64,0.00,,,0.00,Wunderground v.1.15,2013-05-03 12:05:00,
2013-05-03 08:15:00,64.2,51.3,30.15,ESE,103,1.0,3.0,63,0.00,,,0.00,Wunderground v.1.15,2013-05-03 12:15:00,
2013-05-03 08:20:00,64.6,51.3,30.15,SE,138,2.0,2.0,62,0.00,,,0.00,Wunderground v.1.15,2013-05-03 12:20:00,
2013-05-03 08:30:00,65.0,51.2,30.15,SW,233,2.0,2.0,61,0.00,,,0.00,Wunderground v.1.15,2013-05-03 12:30:00,
2013-05-03 08:35:00,65.5,52.1,30.15,SW,221,3.0,5.0,62,0.00,,,0.00,Wunderground v.1.15,2013-05-03 12:35:00,
2013-05-03 08:45:00,66.2,51.9,30.15,SW,230,2.0,2.0,60,0.00,,,0.00,Wunderground v.1.15,2013-05-03 12:45:00,
2013-05-03 08:50:00,65.5,51.7,30.15,SE,139,2.0,2.0,61,0.00,,,0.00,Wunderground v.1.15,2013-05-03 12:50:00,
2013-05-03 09:00:00,65.2,52.7,30.15,SSE,159,2.0,2.0,64,0.00,,,0.00,Wunderground v.1.15,2013-05-03 13:00:00,
2013-05-03 09:10:00,65.2,52.3,30.15,SW,226,1.0,4.0,63,0.00,,,0.00,Wunderground v.1.15,2013-05-03 13:10:00,
2013-05-03 09:15:00,65.1,52.2,30.15,WSW,242,2.0,4.0,63,0.00,,,0.00,Wunderground v.1.15,2013-05-03 13:15:00,
2013-05-03 09:25:00,65.6,53.1,30.14,SW,231,2.0,2.0,64,0.00,,,0.00,Wunderground v.1.15,2013-05-03 13:25:00,
2013-05-03 09:30:00,65.8,52.9,30.14,South,177,2.0,2.0,63,0.00,,,0.00,Wunderground v.1.15,2013-05-03 13:30:00,
2013-05-03 09:40:00,65.6,52.7,30.14,SE,131,2.0,2.0,63,0.00,,,0.00,Wunderground v.1.15,2013-05-03 13:40:00,
2013-05-03 09:50:00,66.6,53.6,30.14,East,84,2.0,2.0,63,0.00,,,0.00,Wunderground v.1.15,2013-05-03 13:50:00,
2013-05-03 09:55:00,67.4,53.9,30.14,ESE,106,3.0,3.0,62,0.00,,,0.00,Wunderground v.1.15,2013-05-03 13:55:00,
2013-05-03 10:00:00,68.0,53.6,30.14,NE,53,2.0,3.0,60,0.00,,,0.00,Wunderground v.1.15,2013-05-03 14:00:00,
2013-05-03 10:10:00,68.5,54.5,30.14,SSW,196,3.0,3.0,61,0.00,,,0.00,Wunderground v.1.15,2013-05-03 14:10:00,
2013-05-03 10:20:00,69.1,54.6,30.14,East,79,2.0,2.0,60,0.00,,,0.00,Wunderground v.1.15,2013-05-03 14:20:00,
2013-05-03 10:25:00,69.8,55.3,30.14,ESE,118,1.0,2.0,60,0.00,,,0.00,Wunderground v.1.15,2013-05-03 14:25:00,
2013-05-03 10:35:00,70.3,54.8,30.14,East,90,2.0,5.0,58,0.00,,,0.00,Wunderground v.1.15,2013-05-03 14:35:00,
2013-05-03 10:45:00,68.5,55.0,30.14,NE,52,3.0,3.0,62,0.00,,,0.00,Wunderground v.1.15,2013-05-03 14:45:00,
2013-05-03 10:50:00,68.6,55.1,30.14,NE,52,3.0,3.0,62,0.00,,,0.00,Wunderground v.1.15,2013-05-03 14:50:00,
2013-05-03 11:00:00,67.7,54.2,30.14,SE,134,2.0,2.0,62,0.00,,,0.00,Wunderground v.1.15,2013-05-03 15:00:00,
2013-05-03 11:10:00,67.3,54.7,30.14,NE,56,3.0,3.0,64,0.00,,,0.00,Wunderground v.1.15,2013-05-03 15:10:00,
2013-05-03 11:15:00,68.1,55.0,30.14,ESE,104,3.0,4.0,63,0.00,,,0.00,Wunderground v.1.15,2013-05-03 15:15:00,
2013-05-03 11:25:00,67.6,54.6,30.14,NE,41,3.0,3.0,63,0.00,,,0.00,Wunderground v.1.15,2013-05-03 15:25:00,
2013-05-03 11:30:00,68.0,55.4,30.14,WSW,240,2.0,2.0,64,0.00,,,0.00,Wunderground v.1.15,2013-05-03 15:30:00,
2013-05-03 11:40:00,66.4,55.1,30.14,SE,127,3.0,5.0,67,0.00,,,0.00,Wunderground v.1.15,2013-05-03 15:40:00,
2013-05-03 11:45:00,66.9,55.2,30.14,ESE,105,4.0,7.0,66,0.00,,,0.00,Wunderground v.1.15,2013-05-03 15:45:00,
2013-05-03 11:55:00,68.1,55.9,30.14,East,89,4.0,5.0,65,0.00,,,0.00,Wunderground v.1.15,2013-05-03 15:55:00,
2013-05-03 12:00:00,68.6,54.6,30.14,ESE,103,3.0,3.0,61,0.00,,,0.00,Wunderground v.1.15,2013-05-03 16:00:00,
2013-05-03 12:10:00,69.2,54.7,30.14,ENE,59,4.0,5.0,60,0.00,,,0.00,Wunderground v.1.15,2013-05-03 16:10:00,
2013-05-03 12:20:00,69.1,54.6,30.14,SE,139,4.0,4.0,60,0.00,,,0.00,Wunderground v.1.15,2013-05-03 16:20:00,
2013-05-03 12:25:00,69.6,56.0,30.14,South,169,3.0,4.0,62,0.00,,,0.00,Wunderground v.1.15,2013-05-03 16:25:00,
2013-05-03 12:35:00,68.5,54.1,30.14,ENE,62,4.0,6.0,60,0.00,,,0.00,Wunderground v.1.15,2013-05-03 16:35:00,
2013-05-03 12:40:00,68.2,54.2,30.14,East,95,5.0,5.0,61,0.00,,,0.00,Wunderground v.1.15,2013-05-03 16:40:00,
2013-05-03 12:50:00,69.0,55.0,30.13,NE,52,3.0,3.0,61,0.00,,,0.00,Wunderground v.1.15,2013-05-03 16:50:00,
2013-05-03 13:00:00,68.8,54.3,30.13,ENE,72,5.0,8.0,60,0.00,,,0.00,Wunderground v.1.15,2013-05-03 17:00:00,
2013-05-03 13:10:00,68.3,53.9,30.13,East,98,6.0,7.0,60,0.00,,,0.00,Wunderground v.1.15,2013-05-03 17:10:00,
2013-05-03 13:20:00,68.0,52.2,30.13,NE,52,6.0,6.0,57,0.00,,,0.00,Wunderground v.1.15,2013-05-03 17:20:00,
2013-05-03 13:30:00,68.3,52.0,30.13,East,80,6.0,6.0,56,0.00,,,0.00,Wunderground v.1.15,2013-05-03 17:30:00,
2013-05-03 13:35:00,68.6,51.8,30.13,ENE,59,5.0,6.0,55,0.00,,,0.00,Wunderground v.1.15,2013-05-03 17:35:00,
2013-05-03 13:45:00,68.7,51.4,30.13,NE,53,5.0,5.0,54,0.00,,,0.00,Wunderground v.1.15,2013-05-03 17:45:00,
2013-05-03 13:55:00,68.4,49.6,30.13,ENE,73,6.0,6.0,51,0.00,,,0.00,Wunderground v.1.15,2013-05-03 17:55:00,
2013-05-03 14:00:00,68.3,48.9,30.12,ENE,76,7.0,9.0,50,0.00,,,0.00,Wunderground v.1.15,2013-05-03 18:00:00,
2013-05-03 14:10:00,68.7,49.3,30.12,East,83,6.0,6.0,50,0.00,,,0.00,Wunderground v.1.15,2013-05-03 18:10:00,
2013-05-03 14:15:00,68.8,49.9,30.12,East,91,5.0,12.0,51,0.00,,,0.00,Wunderground v.1.15,2013-05-03 18:15:00,
2013-05-03 14:25:00,68.6,49.7,30.12,East,83,6.0,8.0,51,0.00,,,0.00,Wunderground v.1.15,2013-05-03 18:25:00,
2013-05-03 14:30:00,68.5,49.1,30.12,East,96,6.0,8.0,50,0.00,,,0.00,Wunderground v.1.15,2013-05-03 18:30:00,
2013-05-03 14:40:00,68.8,49.9,30.12,ENE,62,7.0,7.0,51,0.00,,,0.00,Wunderground v.1.15,2013-05-03 18:40:00,
2013-05-03 14:50:00,68.4,50.1,30.12,SSE,147,7.0,7.0,52,0.00,,,0.00,Wunderground v.1.15,2013-05-03 18:50:00,
2013-05-03 14:55:00,68.4,50.6,30.12,ENE,78,7.0,7.0,53,0.00,,,0.00,Wunderground v.1.15,2013-05-03 18:55:00,
2013-05-03 15:00:00,68.6,50.8,30.12,East,94,6.0,6.0,53,0.00,,,0.00,Wunderground v.1.15,2013-05-03 19:00:00,
2013-05-03 15:10:00,68.9,50.0,30.11,NE,44,5.0,5.0,51,0.00,,,0.00,Wunderground v.1.15,2013-05-03 19:10:00,
2013-05-03 15:20:00,68.4,47.9,30.11,ENE,78,6.0,10.0,48,0.00,,,0.00,Wunderground v.1.15,2013-05-03 19:20:00,
2013-05-03 15:25:00,68.4,46.8,30.11,ENE,77,7.0,10.0,46,0.00,,,0.00,Wunderground v.1.15,2013-05-03 19:25:00,
2013-05-03 15:35:00,68.7,47.1,30.11,ENE,59,6.0,7.0,46,0.00,,,0.00,Wunderground v.1.15,2013-05-03 19:35:00,
2013-05-03 15:45:00,69.5,46.6,30.10,ENE,72,6.0,11.0,44,0.00,,,0.00,Wunderground v.1.15,2013-05-03 19:45:00,
2013-05-03 15:50:00,69.9,45.8,30.10,ENE,65,5.0,6.0,42,0.00,,,0.00,Wunderground v.1.15,2013-05-03 19:50:00,
2013-05-03 16:00:00,70.0,42.5,30.10,East,80,6.0,10.0,37,0.00,,,0.00,Wunderground v.1.15,2013-05-03 20:00:00,
2013-05-03 16:05:00,69.7,42.9,30.10,East,97,7.0,10.0,38,0.00,,,0.00,Wunderground v.1.15,2013-05-03 20:05:00,
2013-05-03 16:15:00,69.2,41.8,30.10,NE,38,6.0,7.0,37,0.00,,,0.00,Wunderground v.1.15,2013-05-03 20:15:00,
2013-05-03 16:20:00,69.1,42.4,30.09,ENE,63,6.0,7.0,38,0.00,,,0.00,Wunderground v.1.15,2013-05-03 20:20:00,
2013-05-03 16:30:00,68.8,40.7,30.09,East,94,7.0,7.0,36,0.00,,,0.00,Wunderground v.1.15,2013-05-03 20:30:00,
2013-05-03 16:35:00,68.6,40.6,30.09,ESE,103,7.0,9.0,36,0.00,,,0.00,Wunderground v.1.15,2013-05-03 20:35:00,
2013-05-03 16:45:00,68.8,41.5,30.09,East,83,6.0,6.0,37,0.00,,,0.00,Wunderground v.1.15,2013-05-03 20:45:00,
2013-05-03 16:55:00,68.6,39.8,30.09,NE,53,7.0,7.0,35,0.00,,,0.00,Wunderground v.1.15,2013-05-03 20:55:00,
2013-05-03 17:00:00,68.5,40.5,30.09,NNE,14,6.0,6.0,36,0.00,,,0.00,Wunderground v.1.15,2013-05-03 21:00:00,
2013-05-03 17:10:00,68.9,40.8,30.09,NE,49,5.0,6.0,36,0.00,,,0.00,Wunderground v.1.15,2013-05-03 21:10:00,
2013-05-03 17:15:00,69.2,41.1,30.09,East,91,5.0,6.0,36,0.00,,,0.00,Wunderground v.1.15,2013-05-03 21:15:00,
2013-05-03 17:25:00,69.3,40.5,30.08,East,99,5.0,7.0,35,0.00,,,0.00,Wunderground v.1.15,2013-05-03 21:25:00,
2013-05-03 17:35:00,69.0,39.4,30.08,NE,46,6.0,6.0,34,0.00,,,0.00,Wunderground v.1.15,2013-05-03 21:35:00,
2013-05-03 17:40:00,68.9,39.4,30.08,East,79,7.0,7.0,34,0.00,,,0.00,Wunderground v.1.15,2013-05-03 21:40:00,
2013-05-03 17:50:00,68.5,40.5,30.08,ENE,78,6.0,7.0,36,0.00,,,0.00,Wunderground v.1.15,2013-05-03 21:50:00,
2013-05-03 18:00:00,68.6,39.8,30.08,ENE,60,6.0,6.0,35,0.00,,,0.00,Wunderground v.1.15,2013-05-03 22:00:00,
2013-05-03 18:10:00,69.1,39.5,30.08,ENE,72,5.0,5.0,34,0.00,,,0.00,Wunderground v.1.15,2013-05-03 22:10:00,
2013-05-03 18:20:00,68.5,39.0,30.08,East,101,6.0,9.0,34,0.00,,,0.00,Wunderground v.1.15,2013-05-03 22:20:00,
2013-05-03 18:25:00,68.4,39.7,30.08,NE,56,7.0,9.0,35,0.00,,,0.00,Wunderground v.1.15,2013-05-03 22:25:00,
2013-05-03 18:35:00,68.7,39.2,30.08,NE,50,6.0,9.0,34,0.00,,,0.00,Wunderground v.1.15,2013-05-03 22:35:00,
2013-05-03 18:45:00,68.3,39.6,30.08,ENE,78,5.0,9.0,35,0.00,,,0.00,Wunderground v.1.15,2013-05-03 22:45:00,
2013-05-03 18:50:00,68.1,40.1,30.08,NE,51,5.0,6.0,36,0.00,,,0.00,Wunderground v.1.15,2013-05-03 22:50:00,
2013-05-03 19:00:00,68.1,39.4,30.08,East,84,5.0,7.0,35,0.00,,,0.00,Wunderground v.1.15,2013-05-03 23:00:00,
2013-05-03 19:10:00,68.0,40.0,30.08,East,80,6.0,6.0,36,0.00,,,0.00,Wunderground v.1.15,2013-05-03 23:10:00,
2013-05-03 19:20:00,67.6,41.1,30.08,East,90,5.0,5.0,38,0.00,,,0.00,Wunderground v.1.15,2013-05-03 23:20:00,
2013-05-03 19:30:00,66.8,41.7,30.08,NE,49,5.0,6.0,40,0.00,,,0.00,Wunderground v.1.15,2013-05-03 23:30:00,
2013-05-03 19:35:00,66.5,41.4,30.08,East,84,5.0,6.0,40,0.00,,,0.00,Wunderground v.1.15,2013-05-03 23:35:00,
2013-05-03 21:50:00,59.6,44.3,30.09,ENE,70,0.0,0.0,57,0.00,,,0.00,Wunderground v.1.15,2013-05-04 01:50:00,
2013-05-03 21:55:00,59.2,44.4,30.09,NNE,32,0.0,1.0,58,0.00,,,0.00,Wunderground v.1.15,2013-05-04 01:55:00,
2013-05-03 22:00:00,58.9,44.6,30.09,NNE,32,0.0,0.0,59,0.00,,,0.00,Wunderground v.1.15,2013-05-04 02:00:00,
2013-05-03 22:10:00,58.6,44.8,30.10,East,86,1.0,1.0,60,0.00,,,0.00,Wunderground v.1.15,2013-05-04 02:10:00,
2013-05-03 22:20:00,58.2,45.2,30.09,East,80,0.0,0.0,62,0.00,,,0.00,Wunderground v.1.15,2013-05-04 02:20:00,
2013-05-03 22:25:00,58.2,45.2,30.10,ENE,78,1.0,1.0,62,0.00,,,0.00,Wunderground v.1.15,2013-05-04 02:25:00,
2013-05-03 22:35:00,57.9,45.4,30.10,East,82,1.0,1.0,63,0.00,,,0.00,Wunderground v.1.15,2013-05-04 02:35:00,
2013-05-03 22:40:00,57.9,45.4,30.09,ENE,67,1.0,1.0,63,0.00,,,0.00,Wunderground v.1.15,2013-05-04 02:40:00,
2013-05-03 22:50:00,57.4,45.3,30.09,ENE,71,0.0,0.0,64,0.00,,,0.00,Wunderground v.1.15,2013-05-04 02:50:00,
2013-05-03 23:00:00,57.4,45.3,30.09,ENE,66,1.0,1.0,64,0.00,,,0.00,Wunderground v.1.15,2013-05-04 03:00:00,
2013-05-03 23:05:00,57.6,45.5,30.10,East,89,1.0,2.0,64,0.00,,,0.00,Wunderground v.1.15,2013-05-04 03:05:00,
2013-05-03 23:15:00,58.3,45.3,30.09,East,94,3.0,6.0,62,0.00,,,0.00,Wunderground v.1.15,2013-05-04 03:15:00,
2013-05-03 23:20:00,58.7,45.7,30.10,ENE,63,3.0,3.0,62,0.00,,,0.00,Wunderground v.1.15,2013-05-04 03:20:00,
2013-05-03 23:30:00,59.0,46.0,30.09,NE,38,3.0,3.0,62,0.00,,,0.00,Wunderground v.1.15,2013-05-04 03:30:00,
2013-05-03 23:35:00,59.9,46.0,30.09,SE,134,3.0,3.0,60,0.00,,,0.00,Wunderground v.1.15,2013-05-04 03:35:00,
2013-05-03 23:45:00,60.5,46.5,30.09,East,79,4.0,6.0,60,0.00,,,0.00,Wunderground v.1.15,2013-05-04 03:45:00,
2013-05-03 23:55:00,60.6,46.6,30.09,ENE,75,3.0,4.0,60,0.00,,,0.00,Wunderground v.1.15,2013-05-04 03:55:00,